When you browse on this site, cookies collect data to enhance your experience and personalize the content and advertising you see.
Visit our Privacy Policy to learn more. By continuing to use the site, you agree to this use of cookies and data.
  • En España
  • Lista de países
  • Para 7 días
  • Temperatura del agua
  • Mapa Satelital
  • El tiempo en el mapa
  • Informadores
  • user-avatar
    Iniciar sesión

    Tiempo cada hora Umag

    Hoy, 19 Junio, Miércoles

    Tiempo Temperatura Precipitaciones Viento Presión Humedad
    00:00 +22°C° 0.1 mm 1 mps 760 mmHg 83%
    01:00 +21°C° 0 mm 2 mps 760 mmHg 80%
    02:00 +21°C° 0 mm 2 mps 760 mmHg 80%
    03:00 +20°C° 0 mm 2 mps 760 mmHg 81%
    04:00 +20°C° 0 mm 2 mps 760 mmHg 81%
    05:00 +23°C° 0 mm 1 mps 760 mmHg 77%
    06:00 +24°C° 0 mm 1 mps 760 mmHg 72%
    07:00 +26°C° 0 mm 1 mps 760 mmHg 67%
    08:00 +28°C° 0.1 mm 1 mps 760 mmHg 61%
    09:00 +29°C° 0.1 mm 1 mps 760 mmHg 55%
    10:00 +31°C° 0.1 mm 2 mps 759 mmHg 49%
    11:00 +31°C° 0.2 mm 2 mps 759 mmHg 51%
    12:00 +31°C° 0.2 mm 3 mps 759 mmHg 53%
    13:00 +30°C° 0.2 mm 3 mps 759 mmHg 55%
    14:00 +30°C° 0.1 mm 3 mps 759 mmHg 55%
    15:00 +30°C° 0.1 mm 2 mps 759 mmHg 55%
    16:00 +30°C° 0.1 mm 2 mps 758 mmHg 54%
    17:00 +29°C° 0 mm 2 mps 758 mmHg 61%
    18:00 +28°C° 0 mm 2 mps 758 mmHg 68%
    19:00 +26°C° 0 mm 2 mps 758 mmHg 74%
    20:00 +25°C° 0 mm 2 mps 759 mmHg 78%
    21:00 +24°C° 0 mm 2 mps 759 mmHg 81%
    22:00 +23°C° 0 mm 2 mps 759 mmHg 85%
    23:00 +23°C° 0 mm 2 mps 759 mmHg 85%

    Mañana, 20 Junio, Jueves

    Tiempo Temperatura Precipitaciones Viento Presión Humedad
    00:00 +21°C° 0 mm 2 mps 759 mmHg 84%
    01:00 +21°C° 0 mm 2 mps 759 mmHg 84%
    02:00 +21°C° 0 mm 2 mps 759 mmHg 84%
    03:00 +21°C° 0 mm 2 mps 759 mmHg 83%
    04:00 +21°C° 0 mm 2 mps 759 mmHg 83%
    05:00 +23°C° 0 mm 1 mps 759 mmHg 78%
    06:00 +25°C° 0 mm 1 mps 759 mmHg 73%
    07:00 +26°C° 0 mm 1 mps 759 mmHg 68%
    08:00 +28°C° 0 mm 1 mps 759 mmHg 62%
    09:00 +30°C° 0 mm 1 mps 759 mmHg 56%
    10:00 +31°C° 0 mm 2 mps 759 mmHg 50%
    11:00 +31°C° 0 mm 2 mps 759 mmHg 51%
    12:00 +31°C° 0 mm 3 mps 759 mmHg 52%
    13:00 +31°C° 0 mm 3 mps 758 mmHg 53%
    14:00 +31°C° 0 mm 3 mps 758 mmHg 52%
    15:00 +31°C° 0 mm 2 mps 758 mmHg 52%
    16:00 +30°C° 0 mm 2 mps 758 mmHg 51%
    17:00 +29°C° 0 mm 2 mps 758 mmHg 58%
    18:00 +28°C° 0 mm 2 mps 758 mmHg 66%
    19:00 +26°C° 0 mm 2 mps 758 mmHg 73%
    20:00 +25°C° 0 mm 2 mps 758 mmHg 78%
    21:00 +23°C° 0 mm 2 mps 759 mmHg 83%
    22:00 +21°C° 0 mm 2 mps 759 mmHg 88%
    23:00 +21°C° 0 mm 2 mps 759 mmHg 86%

    Pasado mañana, 21 Junio, Viernes

    Tiempo Temperatura Precipitaciones Viento Presión Humedad
    00:00 +21°C° 0 mm 2 mps 759 mmHg 84%
    01:00 +20°C° 0 mm 2 mps 760 mmHg 83%
    02:00 +20°C° 0 mm 2 mps 760 mmHg 82%
    03:00 +20°C° 0 mm 2 mps 760 mmHg 81%
    04:00 +20°C° 0 mm 2 mps 760 mmHg 79%
    05:00 +23°C° 0 mm 2 mps 760 mmHg 74%
    06:00 +25°C° 0 mm 1 mps 760 mmHg 69%
    07:00 +26°C° 0 mm 1 mps 761 mmHg 64%
    08:00 +28°C° 0 mm 1 mps 761 mmHg 57%
    09:00 +30°C° 0 mm 1 mps 761 mmHg 50%
    10:00 +32°C° 0 mm 1 mps 761 mmHg 43%
    11:00 +32°C° 0 mm 2 mps 761 mmHg 43%
    12:00 +32°C° 0 mm 2 mps 761 mmHg 43%
    13:00 +32°C° 0 mm 2 mps 760 mmHg 43%
    14:00 +33°C° 0 mm 3 mps 760 mmHg 45%
    15:00 +31°C° 0 mm 3 mps 760 mmHg 46%
    16:00 +31°C° 0 mm 3 mps 760 mmHg 48%
    17:00 +29°C° 0 mm 3 mps 760 mmHg 55%
    18:00 +28°C° 0 mm 2 mps 760 mmHg 62%
    19:00 +26°C° 0 mm 2 mps 760 mmHg 69%
    20:00 +25°C° 0 mm 2 mps 760 mmHg 70%
    21:00 +24°C° 0 mm 2 mps 760 mmHg 71%
    22:00 +21°C° 0 mm 2 mps 761 mmHg 72%
    23:00 +21°C° 0 mm 2 mps 761 mmHg 67%

    22 Junio, Sábado

    Tiempo Temperatura Precipitaciones Viento Presión Humedad
    00:00 +21°C° 0 mm 2 mps 761 mmHg 63%
    01:00 +21°C° 0 mm 2 mps 760 mmHg 59%
    02:00 +21°C° 0 mm 2 mps 760 mmHg 58%
    03:00 +21°C° 0 mm 2 mps 760 mmHg 57%
    04:00 +20°C° 0 mm 2 mps 760 mmHg 57%
    05:00 +23°C° 0.5 mm 2 mps 760 mmHg 60%
    06:00 +24°C° 0.5 mm 2 mps 760 mmHg 64%
    07:00 +25°C° 0.5 mm 1 mps 760 mmHg 67%
    08:00 +27°C° 1 mm 1 mps 760 mmHg 62%
    09:00 +28°C° 1 mm 1 mps 760 mmHg 56%
    10:00 +30°C° 1 mm 2 mps 759 mmHg 50%
    11:00 +30°C° 0.3 mm 3 mps 759 mmHg 47%
    12:00 +31°C° 0.3 mm 3 mps 759 mmHg 44%
    13:00 +32°C° 0.3 mm 4 mps 759 mmHg 41%
    14:00 +32°C° 0 mm 4 mps 759 mmHg 43%
    15:00 +30°C° 0 mm 4 mps 759 mmHg 46%
    16:00 +30°C° 0 mm 4 mps 758 mmHg 48%
    17:00 +28°C° 0 mm 3 mps 758 mmHg 57%
    18:00 +27°C° 0 mm 2 mps 758 mmHg 65%
    19:00 +25°C° 0 mm 2 mps 758 mmHg 74%
    20:00 +24°C° 0 mm 1 mps 758 mmHg 76%
    21:00 +23°C° 0 mm 1 mps 759 mmHg 79%
    22:00 +22°C° 0 mm 1 mps 759 mmHg 81%
    23:00 +22°C° 0 mm 1 mps 759 mmHg 82%

    23 Junio, Domingo

    Tiempo Temperatura Precipitaciones Viento Presión Humedad
    00:00 +22°C° 0 mm 1 mps 759 mmHg 82%
    01:00 +22°C° 0 mm 1 mps 759 mmHg 83%
    02:00 +21°C° 0 mm 2 mps 760 mmHg 69%
    03:00 +21°C° 0 mm 2 mps 760 mmHg 68%
    04:00 +21°C° 0 mm 2 mps 760 mmHg 68%
    05:00 +23°C° 0 mm 1 mps 760 mmHg 65%
    06:00 +25°C° 0 mm 1 mps 761 mmHg 62%
    07:00 +25°C° 0 mm 0 mps 761 mmHg 59%
    08:00 +28°C° 0 mm 1 mps 761 mmHg 55%
    09:00 +30°C° 0 mm 1 mps 761 mmHg 51%
    10:00 +31°C° 0 mm 2 mps 761 mmHg 47%
    11:00 +31°C° 0 mm 2 mps 761 mmHg 46%
    12:00 +31°C° 0 mm 2 mps 761 mmHg 46%
    13:00 +32°C° 0 mm 2 mps 761 mmHg 45%
    14:00 +32°C° 0 mm 2 mps 761 mmHg 46%
    15:00 +31°C° 0 mm 2 mps 761 mmHg 47%
    16:00 +31°C° 0 mm 2 mps 761 mmHg 48%
    17:00 +30°C° 0 mm 2 mps 761 mmHg 56%
    18:00 +28°C° 0 mm 1 mps 761 mmHg 64%
    19:00 +25°C° 0 mm 0 mps 761 mmHg 72%
    20:00 +26°C° 0 mm 1 mps 762 mmHg 73%
    21:00 +25°C° 0 mm 1 mps 762 mmHg 75%
    22:00 +24°C° 0 mm 1 mps 763 mmHg 76%
    23:00 +24°C° 0 mm 1 mps 763 mmHg 76%

    24 Junio, Lunes

    Tiempo Temperatura Precipitaciones Viento Presión Humedad
    00:00 +23°C° 0 mm 1 mps 763 mmHg 76%
    01:00 +23°C° 0 mm 1 mps 764 mmHg 76%
    02:00 +23°C° 0 mm 1 mps 764 mmHg 77%
    03:00 +22°C° 0 mm 1 mps 764 mmHg 77%
    04:00 +22°C° 0 mm 1 mps 764 mmHg 77%
    05:00 +24°C° 0 mm 1 mps 764 mmHg 73%
    06:00 +26°C° 0 mm 2 mps 764 mmHg 69%
    07:00 +27°C° 0 mm 2 mps 765 mmHg 65%
    08:00 +29°C° 0 mm 2 mps 765 mmHg 59%
    09:00 +31°C° 0 mm 2 mps 765 mmHg 53%
    10:00 +34°C° 0 mm 2 mps 765 mmHg 47%
    11:00 +34°C° 0 mm 2 mps 765 mmHg 46%
    12:00 +34°C° 0 mm 2 mps 765 mmHg 46%
    13:00 +34°C° 0 mm 2 mps 765 mmHg 45%
    14:00 +34°C° 0 mm 2 mps 765 mmHg 46%
    15:00 +34°C° 0 mm 2 mps 764 mmHg 47%
    16:00 +34°C° 0 mm 2 mps 764 mmHg 48%
    17:00 +31°C° 0 mm 2 mps 764 mmHg 56%
    18:00 +30°C° 0 mm 1 mps 765 mmHg 64%
    19:00 +28°C° 0 mm 1 mps 765 mmHg 72%
    20:00 +27°C° 0 mm 1 mps 765 mmHg 74%
    21:00 +26°C° 0 mm 1 mps 766 mmHg 77%
    22:00 +25°C° 0 mm 1 mps 766 mmHg 80%
    23:00 +24°C° 0 mm 1 mps 766 mmHg 80%
    Mostrar más